Tracking 28081 objects as of 27-Sep-2023
HD Live streaming from Space Station
objects crossing your sky now

STARLINK-5683

Track STARLINK-5683 now!
10-day predictions
STARLINK-5683 is classified as:


NORAD ID: 55452
Int'l Code: 2023-015D
Perigee: 565.4 km
Apogee: 567.1 km
Inclination: 43.0 °
Period: 95.8 minutes
Semi major axis: 6937 km
RCS: Unknown
Launch date: February 2, 2023
Source: United States (US)
Launch site: AIR FORCE EASTERN TEST RANGE (AFETR)
Your satellite tracking list
Your tracking list is empty




NASA's NSSDC Master Catalog

Two Line Element Set (TLE):
1 55452U 23015D   23269.72073104 -.00002769  00000-0 -19001-3 0  9998
2 55452  43.0032 149.3288 0001248 257.3373 102.7330 15.02525114 36129
Source of the keplerian elements: AFSPC